Погода в Когалыме

Погода в Когалыме : погода сейчас, прогноз погоды и архив. Всё, что Вы хотите узнать о погоде в Когалыме!

Хотите узнать прогноз погоды в Когалыме? Тогда Вам сюда: Погода в Когалыме

Поиск расширенной информации на нашем сайте:

Другие новости

Новости СМИ2

Главная страница сайта

Новости сайта

03.07.2017

Напоминаем, что на нашем специализированном сайте Метеоцентр.Азия вы можете получить высокодетализированные автоматические прогнозы погоды по пунктам России, СНГ и мира в авиационном формате (включающие направление и скорость ветра, видимость, явления погоды, количество и форму облачности, нижнюю и верхнюю границу облачности).


Погода в Когалыме - сегодня

Время (UTC), дата Ветер
(°,м/с) 
Видим.   Явления Облачность Т
(°С)
Тd
(°С)
f(%) Тe
(°С)
Pmin
(гПа)
dP
(гПа)
Po
(мм)
O2
(г/м3)
Тmin Tmax R s Состояние
почвы
21 22.07.17 020 (С) 20000 м    3/0 средняя 
[Ac trans]
+15.4 +13.6 89 +23  1012.7  -0.4  754  285           
00 23.07.17 130 (ЮВ) 20000 м    4/0 средняя 
[Ac trans]
+19.2 +17.4 89 +33  1012.7  0.1  754  280           
06 23.07.17 100 (В) 20000 м    3/0 средняя 
[Ac trans]
+26.1 +17.7 60 +40  1012.5  -0.1  754  273           
09 23.07.17 120 (ЮВ) 20000 м    4/4 1000 м 
[Cu hum]
+27.6 +17.1 53 +40  1010.2  -2.2  752  271           
12 23.07.17 090 (В) 3{12}  10 км  слаб. ливневой дождь  6/4 1000 м кучево-дожд., средняя 
[Cb cap|Ac trans]
+22.5 +14.8 62 +31  1010.8  0.4  752  277           
15 23.07.17 100 (В) 20000 м  {ливн. осадки}  3/0 средняя 
[Ac trans]
+23.2 +14.8 59 +31  1011.2  0.4  753  276    +27.6  0.3     
18 23.07.17 120 (ЮВ) 20000 м  {ливн. осадки}  3/0 верхняя 
[Ci fib]
+20.4 +16.8 80 +32  1011.1  -0.1  752  278           
21 23.07.17 тихо ()   20000 м    3/0 средняя, верхняя 
[Ac trans|Ci fib]
+15.5 +14.1 91 +23  1010.5  -0.7  752  284           
00 24.07.17 060 (СВ) 20000 м    4/0 средняя 
[Ac trans]
+17.1 +15.4 90 +27  1011.1  0.6  752  282           
03 24.07.17 080 (В) 20000 м    4/0 средняя 
[Ac trans]
+22.7 +17.6 73 +36  1009.8  -1.2  752  276  +14.5         
06 24.07.17 090 (В) 20000 м    4/3 1000 м средняя 
[Cu hum|Ac trans]
+25.7 +16.3 56 +37  1008.7  -1  751  273           
09 24.07.17 110 (В) 20000 м    6/4 1000 м кучево-дожд., средняя 
[Cb cap|Ac trans]
+27.1 +15.5 49 +37  1007.4  -1.2  750  272           
12 24.07.17 220 (ЮЗ) 20000 м  {гроза, ливн. осадки}  6/4 1000 м кучево-дожд., средняя 
[Cb cap|Ac trans]
+22.6 +15.3 63 +32  1007.3  -0.3  750  276           
15 24.07.17 320 (СЗ) 20000 м    6/0 верхняя 
[Ci fib]
+22 +14.7 63 +30  1006.9  -0.4  749  276    +27.2  0.0     
18 24.07.17 020 (С) 20000 м    4/0 верхняя 
[Ci fib]
+17.5 +14.7 84 +26  1006.6  -0.4  749  281           
21 24.07.17 050 (СВ) 20000 м    3/0 верхняя 
[Ci fib]
+16.3 +15.1 93 +26  1006.1  -0.5  749  281           
00 25.07.17 050 (СВ) 20000 м  в посл. час туман  3/0 верхняя 
[Ci fib]
+16.6 +14.9 90 +26  1006.1  749  281           
03 25.07.17 070 (В) 20000 м    ясно 
+23.1 +13.1 53 +29  1005.9  -0.1  749  276  +14.4         
06 25.07.17 060 (СВ) 20000 м    4/4 1000 м 
[Sc diur, vesp]
+26.2 +14.1 47 +33  1005.2  -0.6  748  272           
09 25.07.17 300 (СЗ) 2{10}  20000 м  в посл. час гроза{ливн. осадки}  6/4 1000 м кучево-дожд., средняя 
[Cb cap|Ac trans]
+22.2 +15 64 +31  1004.6  -0.7  748  275           
12 25.07.17 040 (СВ) 4{10}  20000 м  {гроза, ливн. осадки}  3/3 1000 м кучево-дожд., средняя 
[Cb cap|Ac trans]
+25.9 +14.2 48 +33  1004.3  -0.2  747  272           
15 25.07.17 030 (СВ) 20000 м    3/1 1000 м верхняя 
[Sc|Ci fib]
+23.7 +12.8 50 +29  1004.4  747  275    +27.4  0.0     
18 25.07.17 020 (С) 20000 м    3/0 средняя 
[Ac trans]
+15.7 +11.6 77 +20  1004.8  0.3  748  283           
21 25.07.17 360 (С) 20000 м    3/0 средняя 
[Ac trans]
+14.1 +11.3 83 +18  1004.7  -0.2  748  284           
00 26.07.17 020 (С) 20000 м    3/0 средняя 
[Ac trans]
+16.9 +15.5 91 +28  1004.6  748  280           
Время (UTC), дата Ветер
(°,м/с) 
Видим.   Явления Облачность Т
(°С)
Тd
(°С)
f(%) Тe
(°С)
Pmin
(гПа)
dP
(гПа)
Po
(мм)
O2
(г/м3)
Тmin Tmax R s Состояние
почвы

Для получения пояснительной информации подведите курсор к названию столбца.

ПОГОДА в Когалыме - архив

Всё, что Вы хотите узнать о погоде в Когалыме - удобно и подробно!

Выберите нужную дату (начиная с 1 января 2015* года) и нажмите кнопку "Найти".
Будут отображены архивные сводки погоды по пункту Когалым, начиная с указанной даты.


Отображать данные в формате CSV (для использования в таблицах Excel)


Внимание! Наш архив погоды предназначен исключительно для личного некоммерческого использования в познавательных целях. Если Вам необходимы официальные справки о состоянии погоды (для производственных, юридических, коммерческих и т.п. целей), обращайтесь в органы Росгидромета.

*Примечание: данная дата относится к архиву по метеостанциям СССР (Россия, СНГ, Балтия).
Архив по метеостанциям Зарубежной Европы и Азии (кроме Китая) хранится 10 дней, по другим регионам земного шара (Китай, Африка, Америка, Австралия, Океания) - 1 день.

Когалым - район местоположения метеостанции


Название, широта, долгота, высота метеостанции:
Когалым 62.2°ш. 74.5°д. 67 м над ур. моря [Российская Федерация]

Дополнительная информация

В oтличие oт бoльшинства пoгoдных сайтoв мы публикуем пoдрoбную метеoинфoрмацию в детальнoм прoфессиoнальнoм фoрмате.

Характеристики температуры и влажнoсти вoздуха измеряются на высoте 2 м в тени вдали oт зданий и деревьев.
Скoрoсть ветра измеряется на высoте 10 м (на урoвне рoста челoвека скoрoсть ветра ниже в 1.5-2 раза). Если метеoстанция нахoдится в гoрoде или в лесу, тo скoрoсть ветра занижена на 2-4 м/с пo сравнению с oткрытым местoм. Скoрoсть ветра над акватoриями крупных рек и oзёр, а также на вершинах хoлмoв на 2-5 м/с выше, чем в oбычных услoвиях.
Атмoсфернoе давление в разных тoчках местнoсти мoжет значительнo oтличаться oт давления на метеoстанции, в зависимoсти oт услoвий рельефа (при пoдъёме на 10 м давление пoнижается примернo на 1 мм рт.ст.).